GFSGL_850_thetae_057.txt.gz
Theta_e
303 302 301 299 297 296 296 295 295 294 294 294 294 294 294 294 294 294 294 294 294 295 294 295 295 295 295 295 296 298 299 299 300 300 300 300 301 303 303 305 305 307 309
302 301 299 297 296 296 295 294 294 294 294 294 294 294 294 294 294 294 294 294 294 294 294 295 295 295 295 295 295 295 297 299 300 300 301 301 302 302 302 305 305 305 308
302 300 297 296 295 295 294 293 293 293 293 294 294 294 293 294 294 294 294 294 294 294 294 294 295 295 295 295 295 295 296 297 298 299 300 301 301 302 302 302 306 306 308
300 296 295 295 294 294 293 292 292 293 293 294 294 294 294 294 294 294 294 294 294 294 294 295 295 296 295 295 296 295 296 298 299 300 300 301 302 302 302 304 305 307 308
296 295 294 294 294 293 292 292 293 293 293 293 294 294 294 294 294 295 295 296 296 296 296 296 296 297 296 296 296 296 296 297 299 299 300 301 302 303 304 304 306 307 307
295 294 294 293 292 292 293 293 293 293 293 294 294 295 295 295 296 295 296 297 297 297 297 296 297 296 296 297 299 299 300 297 298 298 298 301 302 303 304 306 306 307 308
294 293 292 292 292 292 293 293 293 293 294 294 295 296 296 297 299 297 296 297 297 298 298 297 298 296 296 297 296 297 299 300 300 298 299 300 302 303 304 304 305 305 306
293 292 292 291 292 292 293 293 294 294 294 295 296 297 297 299 299 299 299 299 298 297 297 297 297 296 295 296 296 296 297 297 297 298 300 300 301 302 302 303 304 304 306
292 291 291 291 292 293 293 293 294 294 295 296 297 297 298 300 298 299 299 299 298 298 298 298 297 295 295 295 297 297 297 298 299 299 299 301 302 302 303 304 304 305 305
291 290 290 291 292 293 293 294 294 295 296 297 297 298 298 300 299 299 299 299 299 297 297 298 296 295 295 296 297 297 299 298 298 299 300 301 301 302 303 304 304 305 305
291 290 290 292 293 293 294 294 295 297 297 297 298 298 298 299 298 299 298 299 299 299 298 298 295 295 296 297 298 299 299 298 299 299 299 300 300 302 302 303 304 303 305
290 290 291 293 293 293 294 295 297 297 297 298 297 297 298 299 297 298 298 299 300 300 298 297 295 296 296 297 299 300 299 299 299 299 299 300 301 302 303 303 304 304 304
290 290 292 292 293 294 294 295 296 297 296 298 298 297 298 296 297 298 301 302 301 300 298 297 296 296 297 298 299 299 300 301 300 300 300 299 302 302 301 301 302 303 303
290 291 291 293 293 295 295 295 296 296 297 298 297 298 296 297 297 298 300 301 301 299 299 298 297 297 297 298 299 299 301 300 300 301 300 301 302 302 301 300 300 300 300
291 292 292 292 293 294 294 295 295 295 296 296 297 297 296 296 297 298 299 299 298 298 298 298 298 297 297 298 299 299 300 300 300 300 300 300 299 299 298 298 298 298 298
291 292 292 292 293 293 293 294 295 295 295 296 296 296 296 295 296 297 297 297 297 297 297 297 297 297 297 298 298 298 299 299 300 301 300 299 299 299 299 300 300 300 299
291 291 292 294 293 293 293 293 294 295 295 295 295 295 295 294 295 295 296 296 296 295 295 296 296 297 297 298 297 297 296 298 299 300 299 299 299 299 300 300 301 301 300
291 291 292 292 293 293 293 293 293 294 294 294 295 295 294 293 293 294 294 295 295 296 296 297 297 296 296 296 296 296 296 297 297 297 297 297 300 300 301 302 302 302 303
291 291 291 292 293 293 293 293 293 294 294 294 294 294 293 292 291 292 292 292 293 293 294 295 295 296 297 298 298 297 297 297 297 298 297 297 300 301 302 301 303 303 303
291 291 292 292 293 293 293 293 294 293 293 293 293 294 292 291 290 290 291 291 292 292 293 293 294 294 295 297 297 298 298 298 298 298 298 299 299 300 301 302 303 303 303
291 291 292 292 292 292 293 293 293 293 293 293 293 292 291 290 289 289 289 290 291 291 292 293 293 294 294 295 297 298 299 299 299 299 299 298 299 299 300 301 302 303 301
291 291 292 292 292 293 293 294 293 293 293 292 292 291 290 290 289 289 289 290 290 291 292 292 293 293 294 294 296 296 298 299 300 299 299 299 299 299 301 303 302 302 301
291 291 291 292 292 292 293 293 293 293 292 292 292 291 290 289 289 289 289 289 290 291 292 292 293 293 293 293 294 296 297 299 299 300 300 299 299 300 300 301 302 301 302
290 290 291 291 292 292 293 293 293 292 292 292 291 290 290 290 289 289 289 289 290 291 291 292 292 293 293 294 294 295 296 298 299 300 300 301 300 300 301 302 302 302 303
290 290 290 291 291 291 292 292 292 292 292 291 291 290 290 290 290 289 289 289 290 290 291 292 292 293 294 295 296 297 297 298 298 299 300 300 300 301 302 302 302 302 301
290 290 290 290 290 291 291 292 292 292 292 292 291 291 290 290 289 289 289 289 289 290 291 292 293 295 298 300 300 299 300 299 299 299 300 300 300 300 300 301 301 301 302

GFSGL_850_thetae_060.txt.gz
Theta_e
303 303 303 302 300 298 296 295 295 294 294 293 292 292 294 294 294 294 294 294 294 294 294 294 294 294 294 295 295 295 295 295 296 297 299 299 300 300 300 300 301 303 306
303 303 301 300 298 296 295 294 294 293 292 292 293 294 294 294 294 294 294 294 294 294 294 294 294 294 294 294 295 295 295 295 295 296 297 298 299 300 300 300 300 303 304
303 302 301 297 295 295 294 294 293 293 293 294 294 294 294 294 294 294 294 294 294 294 294 294 294 294 294 294 294 294 295 295 295 295 296 297 298 300 300 300 303 303 303
302 300 297 295 294 294 293 292 292 293 294 294 294 293 294 294 295 295 295 295 295 295 295 295 295 295 295 295 295 296 295 295 296 295 297 298 298 298 299 301 301 302 302
299 296 295 294 293 293 292 292 293 294 294 294 293 294 295 295 296 296 295 296 297 297 297 296 296 296 296 296 296 296 296 297 296 296 295 297 297 298 299 301 302 302 301
296 294 294 293 292 292 291 292 294 295 294 294 294 295 296 296 297 296 296 298 298 299 299 298 298 297 297 298 299 299 300 298 299 297 297 297 297 298 299 301 302 302 303
294 294 293 292 291 291 291 293 294 295 295 295 296 296 297 297 297 296 298 299 299 299 300 300 298 297 297 297 297 297 298 299 299 300 298 298 298 298 300 301 303 303 304
293 293 292 291 290 291 292 294 295 294 295 295 296 297 297 298 298 298 299 299 299 299 299 300 299 298 297 297 297 296 295 296 296 297 298 298 298 299 299 301 302 303 306
293 292 291 290 290 291 293 293 294 294 295 296 296 297 297 297 297 298 298 298 299 300 300 299 299 297 297 297 296 296 296 295 296 297 298 297 298 300 300 300 303 302 305
292 291 291 290 291 293 293 293 294 294 296 296 297 298 297 297 297 297 298 299 298 299 299 300 299 298 297 296 297 296 296 296 297 298 299 299 299 300 301 302 302 300 305
291 291 290 291 292 292 293 293 293 295 295 296 296 296 297 297 297 296 297 299 301 302 301 300 299 298 297 297 298 297 296 297 297 299 298 299 300 301 303 303 302 303 305
291 291 290 292 291 293 293 293 294 294 294 295 296 296 296 297 296 297 298 299 301 303 303 300 298 296 295 297 297 298 299 298 299 298 299 299 300 301 302 303 303 304 304
291 290 290 292 292 293 293 294 294 294 294 296 296 296 297 296 295 296 298 298 299 300 300 299 296 295 296 297 298 299 299 300 299 299 299 299 300 301 301 302 303 304 304
290 290 291 292 292 293 293 293 293 294 295 296 296 296 297 296 295 295 297 298 298 299 298 297 296 297 297 297 298 298 299 299 300 299 299 299 299 302 303 303 304 304 304
289 290 291 292 292 292 293 293 293 294 295 295 295 296 295 295 295 295 296 297 298 297 298 298 298 297 297 297 298 298 298 300 299 300 300 299 299 302 301 301 300 301 302
289 290 291 292 291 292 292 293 293 294 294 295 295 296 295 294 294 294 294 295 296 297 296 297 297 297 297 297 298 297 298 299 300 300 300 300 301 301 300 299 298 298 299
289 290 290 291 291 292 292 292 293 293 294 294 294 294 293 292 292 292 293 294 294 296 295 295 296 296 296 297 297 297 297 298 300 299 299 299 299 299 299 298 298 299 298
289 291 291 291 291 292 292 293 293 293 293 293 293 293 292 291 291 291 291 292 293 293 294 295 295 295 296 296 296 296 296 297 299 300 300 299 299 299 299 299 298 301 299
290 291 291 291 292 292 293 293 293 293 293 293 292 292 291 290 289 289 290 291 291 292 292 293 294 295 296 296 296 296 296 296 296 297 297 297 299 299 299 299 300 302 300
290 291 291 291 292 292 292 292 293 293 293 292 292 291 292 289 289 289 289 290 290 291 291 292 293 293 294 295 296 297 297 297 297 297 297 297 298 300 300 300 300 301 304
290 290 291 292 292 292 292 292 293 292 292 292 291 291 290 289 289 289 289 289 290 290 291 291 292 293 294 294 296 297 297 297 297 298 297 298 297 299 300 301 300 301 302
290 290 291 291 292 292 292 292 292 292 292 292 291 290 290 290 289 289 289 289 289 290 290 291 291 292 293 294 295 296 297 298 297 298 297 297 299 300 299 299 300 301 302
290 290 290 290 291 291 292 292 292 292 292 291 290 290 290 290 289 289 288 289 289 290 290 290 291 292 292 293 294 295 297 298 299 300 299 298 298 298 299 300 301 302 302
290 290 290 290 290 291 291 292 292 292 291 291 291 291 290 290 289 288 288 288 289 290 290 291 291 291 292 293 293 294 296 298 298 299 299 298 298 298 299 299 301 302 302
289 290 290 289 290 290 290 291 291 291 291 291 291 290 290 289 288 288 288 288 289 290 291 292 292 293 294 294 294 295 294 297 298 299 299 299 298 298 300 299 300 301 302
289 290 290 289 289 289 290 290 290 290 290 290 291 290 289 289 288 288 288 288 289 291 292 293 295 296 299 300 299 298 297 298 299 299 300 300 300 300 301 301 301 302 301

GFSGL_850_thetae_063.txt.gz
Theta_e
303 303 303 303 302 300 298 296 295 295 294 293 293 293 294 294 294 294 294 294 294 294 294 294 294 294 295 295 295 295 295 296 296 296 297 297 298 299 300 301 302 302 301
302 302 303 302 301 298 296 295 294 294 293 293 293 294 295 295 295 295 295 295 294 294 294 294 294 294 294 294 294 295 295 295 295 296 296 297 297 298 299 300 300 300 301
302 302 302 301 298 295 294 294 293 292 292 293 295 295 295 295 295 295 295 295 294 295 295 295 295 295 295 294 294 294 294 294 295 295 295 296 297 297 298 299 300 299 300
302 302 300 297 295 294 293 293 292 291 292 294 295 295 295 295 295 295 296 295 295 296 297 297 297 297 296 295 295 295 295 295 295 296 296 296 296 297 297 299 299 300 300
301 300 297 295 294 293 292 291 291 292 294 295 295 296 295 296 297 296 296 296 297 297 298 298 298 299 299 297 296 295 296 295 295 295 296 296 297 297 298 299 299 300 301
300 297 294 293 292 292 291 291 291 293 295 295 296 296 296 296 297 297 297 298 298 299 300 300 299 299 300 299 298 299 299 297 297 297 297 296 297 297 297 297 299 300 302
297 294 293 292 292 291 291 292 293 294 294 295 296 296 296 296 297 297 297 298 298 299 300 300 300 299 299 299 299 298 299 300 300 299 298 299 297 298 298 298 299 300 302
294 293 292 291 291 291 291 293 293 293 294 294 295 296 296 297 297 297 297 298 298 298 299 299 299 299 299 299 298 297 297 297 297 297 298 297 298 299 298 298 299 300 301
293 292 291 291 291 291 292 293 293 293 294 294 295 295 296 296 296 297 297 298 297 299 300 300 300 300 299 300 298 298 297 297 296 295 296 296 296 297 297 299 300 301 301
292 291 291 291 291 291 292 293 293 294 294 294 294 295 296 296 297 297 297 298 298 300 299 301 302 301 300 299 298 298 298 296 296 296 296 297 299 299 299 299 300 300 301
292 291 291 290 290 292 292 293 293 293 294 294 294 296 296 295 297 295 297 297 298 299 300 301 302 300 299 299 298 297 296 296 296 296 297 297 298 300 299 299 301 301 301
291 291 291 290 291 292 292 293 293 293 293 293 294 295 296 296 295 295 295 296 298 299 299 299 299 298 298 297 297 297 298 298 298 298 298 299 299 299 299 300 301 301 302
291 291 290 290 290 292 292 292 292 293 293 294 295 295 295 295 295 296 295 295 298 298 298 297 296 296 296 297 297 298 298 299 299 298 299 298 299 300 302 302 302 301 301
291 290 289 290 291 291 292 292 293 293 294 295 295 295 296 295 294 294 294 294 295 297 298 297 297 297 297 297 297 297 298 299 299 299 298 299 299 300 302 301 300 301 303
290 289 289 291 291 291 292 292 293 293 294 294 295 295 294 293 293 293 293 293 294 296 296 297 298 297 297 297 297 297 298 299 299 300 299 299 299 301 302 302 301 303 303
289 289 289 291 290 291 292 292 293 293 294 294 294 295 293 292 293 292 292 292 293 294 295 296 296 297 297 297 298 297 298 299 300 299 298 299 299 301 302 303 303 303 303
289 289 290 291 291 291 292 292 292 293 293 293 293 292 292 291 291 291 291 291 292 293 294 295 295 296 295 297 297 297 297 299 299 299 300 299 300 300 301 300 300 300 302
289 290 291 290 291 291 292 292 292 292 292 292 292 291 291 290 290 289 290 291 291 292 292 292 293 294 295 295 296 296 296 298 299 300 300 301 300 299 299 298 298 298 299
289 290 290 290 291 291 292 292 292 292 292 292 292 291 291 290 290 289 289 289 289 290 291 291 292 293 294 294 294 296 296 296 298 299 299 299 299 299 299 299 299 299 299
289 290 290 291 291 291 292 292 292 292 291 292 291 290 291 290 290 289 289 289 289 289 290 291 291 292 293 294 295 295 297 296 296 297 298 298 298 299 299 298 299 300 300
289 290 290 291 290 291 291 292 292 292 292 291 291 291 290 290 290 289 288 288 288 289 290 290 291 292 292 293 294 296 296 296 297 296 297 297 297 300 299 299 299 299 300
288 290 290 290 290 291 291 291 292 292 291 291 292 291 290 290 289 289 288 288 288 289 289 290 290 291 292 293 294 295 296 297 297 297 296 297 297 298 299 300 300 300 300
288 289 290 290 290 290 290 291 291 291 291 291 291 291 290 290 289 288 287 288 289 289 290 290 290 290 291 292 293 295 296 297 297 297 297 298 298 297 299 299 300 301 301
288 289 290 289 289 289 290 290 290 290 290 290 290 291 289 288 288 287 288 288 289 290 290 290 290 291 291 292 293 294 295 296 297 297 297 298 297 298 300 299 300 301 301
288 289 290 289 289 289 289 289 289 290 290 290 290 289 288 288 287 288 288 289 289 290 291 292 292 292 293 293 294 295 295 296 297 297 298 298 298 298 298 299 300 301 301
288 289 289 289 289 289 289 289 289 289 289 288 289 288 288 287 287 288 288 289 290 292 293 294 295 296 297 298 298 297 296 297 298 298 298 298 299 298 298 298 301 300 301

GFSGL_850_thetae_066.txt.gz
Theta_e
303 302 302 302 302 302 300 298 297 295 295 295 294 294 294 295 296 296 296 296 296 297 296 296 296 296 295 295 295 295 295 295 296 297 298 299 299 299 299 300 301 302 304
302 302 302 302 301 299 297 296 295 295 294 294 294 294 295 295 296 296 296 296 296 296 296 296 296 295 296 296 295 296 296 295 295 295 296 297 298 299 299 300 301 301 302
301 301 301 301 299 297 296 295 294 294 293 293 294 294 295 296 296 296 296 296 296 295 295 296 296 296 296 296 296 296 296 296 296 295 295 295 296 297 298 299 299 300 301
301 301 301 299 298 295 295 294 293 293 293 293 294 295 295 296 296 296 296 296 296 296 297 297 297 297 297 298 298 298 297 296 296 296 296 296 296 297 298 299 299 300 301
300 300 299 298 295 294 293 293 293 293 293 294 295 295 296 296 296 297 296 297 297 298 298 298 298 299 299 298 299 299 298 297 297 297 297 297 297 297 297 299 299 300 301
299 298 297 295 294 293 292 292 293 293 294 295 295 296 296 296 296 296 297 298 299 299 298 299 300 299 299 299 300 300 301 299 298 298 298 298 297 297 298 299 299 299 301
298 295 294 293 293 292 292 293 293 294 294 294 294 294 294 295 295 296 297 298 298 298 299 299 298 298 299 299 299 300 300 301 301 300 298 298 298 298 298 298 299 300 300
295 294 293 293 292 292 292 293 293 294 294 294 294 294 295 295 296 296 296 298 298 298 299 298 299 299 299 299 300 300 300 299 300 300 300 299 299 299 299 299 299 299 300
294 293 293 292 292 292 292 293 293 294 294 294 294 294 294 295 296 296 297 298 297 297 297 299 300 300 301 301 300 300 300 300 298 298 298 299 298 297 298 298 299 300 300
294 292 292 292 292 292 292 293 292 293 293 293 294 294 294 295 295 297 296 297 297 296 298 299 299 300 301 303 302 301 300 299 298 298 298 298 298 298 299 299 299 300 300
293 292 292 292 291 291 292 292 292 292 293 293 293 294 295 296 296 296 296 297 296 296 297 298 298 299 300 300 300 299 298 298 298 298 298 298 298 299 298 299 299 299 300
292 292 292 291 291 292 292 292 292 293 293 293 294 295 295 295 296 295 295 295 295 295 297 299 298 295 297 298 298 299 299 299 299 298 298 298 299 298 299 299 299 300 300
292 292 291 291 292 292 292 292 292 292 293 293 295 295 295 296 294 294 294 294 294 294 296 298 298 296 296 297 297 297 298 299 299 299 299 299 298 299 299 299 299 300 300
292 292 291 291 292 292 292 292 292 292 293 294 295 295 295 294 293 293 293 293 293 293 294 297 297 297 297 297 297 298 298 298 299 299 299 299 299 299 299 300 301 301 301
292 291 291 291 292 291 292 292 292 293 294 294 294 294 293 295 292 293 293 293 292 293 294 296 297 297 299 299 299 297 297 298 300 299 300 299 299 299 301 301 301 302 301
292 291 291 291 291 291 292 292 293 293 293 293 293 293 292 293 292 292 291 291 291 292 293 295 295 297 297 297 297 297 297 298 299 300 300 299 299 301 302 301 300 301 305
291 291 290 291 291 291 291 292 292 293 293 293 292 293 292 292 291 291 290 290 290 291 291 292 293 294 295 296 296 297 297 298 299 300 299 300 299 301 301 300 301 303 304
290 291 290 290 291 291 291 292 292 292 292 292 292 291 291 292 292 290 290 290 289 290 290 291 292 293 294 294 295 296 297 298 298 299 299 299 301 300 301 301 302 303 304
290 290 290 290 291 291 291 291 292 292 292 292 292 292 291 291 291 290 290 289 289 289 289 290 291 292 293 294 294 295 297 298 299 300 299 300 301 301 301 301 301 300 303
290 290 290 290 290 291 291 291 291 292 292 292 292 292 292 291 291 290 289 289 289 289 289 289 290 291 292 293 295 295 295 298 299 299 300 301 301 301 301 301 301 301 301
290 289 290 290 290 290 290 290 291 291 291 291 292 291 291 291 291 289 289 288 288 288 288 288 289 290 291 293 294 295 295 296 297 299 299 300 300 300 301 300 301 301 300
289 289 290 289 290 290 290 290 290 290 290 291 291 291 290 289 289 288 288 288 288 288 289 289 289 290 291 292 293 294 295 297 298 298 299 299 300 300 301 300 299 300 300
289 289 290 289 290 290 289 289 289 289 290 290 290 289 289 289 288 288 288 288 289 289 289 289 289 290 290 291 292 294 295 296 296 296 298 298 299 300 300 301 300 301 300
288 288 289 289 290 289 289 289 289 289 289 289 290 289 288 288 288 288 288 289 289 289 289 289 290 290 291 291 293 294 295 296 296 296 296 297 297 299 299 300 300 301 300
288 288 289 289 289 289 289 289 288 288 288 289 288 288 288 288 288 288 289 289 289 290 290 291 291 292 292 293 294 294 295 296 296 296 296 297 298 297 298 299 301 301 302
288 288 288 289 289 288 288 288 288 288 288 288 288 288 288 288 288 288 289 289 290 291 292 294 295 296 296 297 297 296 295 296 296 296 297 297 298 298 297 299 300 301 302

GFSGL_850_thetae_069.txt.gz
Theta_e
303 303 303 303 302 302 301 301 300 299 298 297 297 296 296 296 296 296 297 298 298 298 298 297 297 297 297 296 296 296 296 295 295 296 296 297 298 299 299 300 300 300 301
303 302 302 302 302 301 301 300 299 297 297 296 295 295 295 295 296 297 297 298 298 297 297 297 297 296 296 296 296 296 296 296 296 296 296 296 296 297 298 299 300 300 301
302 302 301 301 301 300 299 298 297 296 295 295 295 295 295 296 296 297 297 297 297 297 297 297 297 297 297 297 297 297 297 297 297 297 297 297 296 296 296 297 298 299 300
301 301 301 301 300 299 297 296 296 295 295 295 295 295 296 297 297 296 296 296 297 297 297 297 298 298 298 298 298 298 298 297 297 298 297 297 297 296 296 296 297 298 299
300 300 300 299 298 296 296 295 295 294 294 295 295 296 296 296 296 296 297 297 296 297 298 298 298 299 299 299 299 299 298 298 298 298 298 297 297 297 297 297 297 298 299
300 300 299 297 296 295 295 294 294 294 295 295 295 295 294 294 295 296 297 297 297 298 298 299 299 299 299 300 301 301 302 302 299 299 298 298 299 298 298 297 298 299 300
299 298 297 296 295 295 294 294 294 294 294 295 295 294 294 294 295 296 297 298 298 298 298 298 298 298 299 298 299 300 300 301 302 303 300 300 299 299 298 298 298 299 299
298 297 296 295 295 294 294 294 294 294 295 294 294 294 294 294 295 296 296 298 297 297 298 298 298 298 298 299 300 300 300 300 300 301 300 300 299 299 298 298 299 299 299
297 297 295 294 294 294 293 293 293 294 293 293 293 294 294 294 295 295 296 297 297 297 297 297 297 297 299 299 300 303 302 302 301 300 300 300 300 299 299 299 299 299 299
297 295 294 294 294 293 293 293 294 293 293 293 293 293 294 295 295 295 296 297 297 297 296 296 295 298 298 299 301 301 304 302 300 300 301 298 299 299 298 298 298 299 299
296 295 294 294 293 293 293 294 293 293 293 293 293 293 294 294 296 295 296 296 296 295 295 295 295 297 298 299 299 301 300 300 299 299 299 298 298 298 298 299 299 299 298
295 294 294 294 293 293 293 293 293 292 293 293 293 294 294 295 295 294 295 295 295 295 295 294 294 297 298 298 298 299 298 299 299 299 298 298 298 298 298 298 298 298 298
295 294 294 293 292 293 293 292 292 293 293 293 293 295 294 295 294 294 294 294 294 294 293 293 294 297 298 298 299 297 298 299 298 299 299 299 298 298 298 299 298 299 299
295 294 294 293 292 292 292 292 292 293 293 293 294 294 294 295 293 293 292 292 292 292 292 293 295 297 298 299 299 299 298 298 298 299 298 299 300 299 299 299 299 299 300
294 294 293 292 292 291 291 292 293 292 293 293 294 293 293 294 293 294 293 292 292 291 292 292 295 296 297 298 297 297 298 297 298 300 300 300 299 299 299 299 299 301 300
294 294 293 292 291 291 292 292 292 292 293 293 293 293 293 293 293 294 292 291 291 291 291 291 292 294 295 295 296 298 297 297 298 300 299 300 300 300 301 301 300 301 302
294 293 292 291 291 291 292 292 291 292 292 293 292 293 292 293 293 292 291 291 290 291 290 291 291 292 293 294 295 296 297 298 299 300 301 300 300 301 301 300 300 300 301
294 292 292 291 290 291 291 291 291 291 291 292 292 292 292 293 292 292 291 290 290 289 289 290 291 291 292 293 293 295 296 298 298 299 299 299 300 300 301 300 301 304 304
293 292 291 290 290 291 291 291 291 291 291 291 292 292 292 292 291 291 290 290 289 289 289 289 289 290 291 292 293 294 295 298 299 299 300 300 301 301 301 301 302 303 303
292 291 290 290 290 291 291 290 290 290 290 291 291 291 291 291 290 290 289 289 289 289 289 288 288 289 290 291 293 294 295 298 300 301 300 301 301 301 301 301 302 302 302
291 290 290 289 290 290 290 290 289 289 290 290 290 290 290 290 290 289 289 289 289 288 288 288 288 288 290 290 292 294 294 296 299 300 301 301 301 301 301 301 301 300 301
291 291 289 289 290 290 290 290 289 289 289 290 289 289 289 289 289 289 289 289 288 288 288 288 288 288 290 290 291 293 294 294 297 299 300 300 300 300 300 300 301 300 302
290 290 289 289 290 290 289 290 289 289 289 289 289 289 289 289 289 289 289 289 289 289 289 288 288 289 290 291 291 293 294 294 296 297 298 299 299 300 300 300 300 300 300
290 289 290 289 290 289 289 289 289 289 288 288 288 289 289 289 289 289 289 289 289 289 289 289 289 290 291 291 292 293 294 295 295 296 297 298 298 299 300 300 301 301 301
289 289 290 289 289 289 288 288 289 288 288 288 288 288 289 288 288 288 289 289 289 290 291 291 291 291 292 292 293 294 294 295 295 296 296 296 298 299 299 300 301 301 301
288 289 289 289 289 288 288 288 288 288 288 288 288 288 288 288 289 288 289 289 290 291 292 293 294 295 296 296 296 295 295 295 296 296 296 296 297 297 299 300 300 302 302

GFSGL_850_thetae_072.txt.gz
Theta_e
304 304 304 303 303 303 302 302 301 300 300 299 297 297 296 296 295 295 295 295 296 297 297 298 298 298 297 297 297 296 296 296 296 296 296 296 297 296 297 298 299 300 300
303 303 302 302 302 302 301 301 300 299 298 297 296 295 295 295 295 295 295 296 296 297 297 297 297 297 297 297 297 296 296 297 296 296 296 296 297 297 297 297 297 298 299
303 302 302 301 301 301 300 300 298 297 296 296 295 295 295 295 295 296 297 297 296 296 296 296 297 296 297 297 297 297 297 297 297 297 297 297 297 297 298 298 297 296 297
302 301 301 301 300 300 299 297 296 296 295 294 294 294 295 295 296 296 296 296 296 296 296 297 296 297 297 297 298 297 298 298 298 298 297 297 297 298 297 297 297 297 296
301 301 300 300 300 298 296 296 295 295 294 294 294 294 295 295 295 295 295 295 296 296 297 297 297 298 298 299 301 301 299 299 298 298 298 297 298 298 298 299 298 298 297
300 300 300 298 297 296 296 295 294 294 294 294 294 295 295 295 294 296 296 297 297 297 298 298 297 298 298 298 299 300 301 302 301 298 299 298 299 299 299 299 299 298 297
300 299 297 297 296 296 295 294 294 293 293 293 294 294 294 294 295 296 296 297 297 297 297 298 297 297 298 298 297 298 299 299 300 301 301 300 299 300 299 299 299 298 297
299 297 297 297 296 295 294 294 293 293 293 294 293 293 293 293 294 295 296 297 296 296 297 297 297 297 297 297 296 297 299 300 301 300 301 301 301 300 299 299 299 299 298
297 297 297 296 295 294 294 293 293 293 294 294 293 293 293 293 294 295 296 296 296 297 296 296 296 296 296 296 297 298 300 300 301 301 302 301 301 299 300 299 299 299 298
297 297 296 295 294 294 294 293 293 293 293 292 293 293 293 293 293 294 295 296 296 297 295 294 295 295 296 296 297 299 299 300 300 300 301 301 301 303 301 300 299 299 299
297 297 295 295 294 294 293 293 293 293 292 293 293 293 293 294 294 295 295 295 296 296 295 294 294 294 295 297 298 299 298 299 299 299 300 300 299 298 299 299 300 298 298
297 296 295 295 294 293 293 293 293 292 293 293 293 293 294 294 294 295 294 294 295 294 293 293 293 294 295 296 299 298 298 298 299 299 298 298 297 297 298 298 298 299 298
296 295 295 294 294 293 292 292 291 292 292 292 292 293 294 294 293 294 293 294 293 293 292 292 293 292 295 297 298 298 298 298 299 298 298 298 299 298 298 298 298 298 298
296 295 294 294 293 293 292 291 292 292 292 292 293 293 293 293 293 292 294 294 292 292 292 293 291 293 296 298 298 298 297 297 297 297 298 298 299 299 299 299 298 298 299
296 295 294 294 293 292 291 292 292 292 292 293 293 293 293 293 293 294 294 294 292 292 292 291 291 292 294 296 296 297 298 297 297 298 299 300 300 300 299 299 299 298 298
295 294 294 293 292 291 291 291 291 291 291 292 293 293 293 293 293 294 293 294 292 291 291 290 290 291 291 293 294 295 296 296 298 298 299 300 300 299 299 299 299 299 298
294 294 293 293 292 290 291 291 291 291 291 291 292 292 292 292 292 292 292 291 290 290 290 290 289 290 291 292 292 293 294 296 298 299 299 300 300 300 300 301 300 300 300
294 294 293 292 290 290 291 291 290 290 290 290 291 291 291 291 292 291 290 290 289 289 289 289 289 288 290 291 292 292 294 295 297 299 299 300 300 299 300 300 300 300 300
294 293 292 290 289 290 291 291 290 290 290 290 290 290 290 290 291 290 289 289 289 289 289 289 288 288 288 290 291 293 293 296 298 299 299 300 301 300 300 301 301 301 303
293 292 291 291 290 290 290 290 290 290 289 289 289 290 289 291 290 289 289 289 289 289 288 288 288 288 288 289 290 293 294 297 298 299 299 301 302 301 301 301 302 301 303
292 291 291 290 290 290 290 290 289 289 289 289 289 289 289 290 289 289 289 289 289 288 288 288 288 287 287 288 289 292 294 296 297 299 301 301 301 301 300 301 301 303 304
290 290 290 289 290 290 290 289 289 289 289 288 289 289 289 289 289 289 289 289 289 289 289 288 288 288 288 288 290 291 294 295 297 299 300 300 299 300 300 300 301 302 302
288 290 289 289 290 290 289 289 289 289 288 288 288 289 288 289 289 289 288 288 289 289 289 289 288 288 288 289 291 292 294 295 297 297 299 299 299 300 299 299 300 301 302
288 289 289 289 289 289 288 288 288 288 288 288 288 288 288 288 288 288 288 289 289 289 289 289 289 290 290 291 292 292 294 295 296 297 298 298 298 299 299 300 300 300 301
288 289 289 289 289 289 289 288 288 288 288 288 288 288 288 288 288 288 288 289 289 289 290 291 291 292 292 293 293 293 294 295 295 296 297 298 298 298 299 301 301 300 300
288 288 288 288 288 288 288 288 288 287 287 288 288 288 288 288 288 288 288 289 289 290 292 293 294 295 295 296 295 294 294 294 295 295 297 297 298 298 299 300 301 300 301

GFSGL_850_thetae_075.txt.gz
Theta_e
304 304 303 303 303 302 302 302 302 301 301 300 300 298 297 296 295 295 295 295 295 295 295 296 296 297 297 297 297 297 297 296 296 296 296 296 297 297 297 297 297 297 298
304 303 303 302 302 302 301 301 301 300 300 297 296 296 295 294 294 294 294 295 296 296 296 296 296 296 296 296 297 297 296 296 297 296 297 297 297 297 297 297 298 298 297
303 303 302 302 301 301 300 300 300 297 296 296 295 294 294 294 294 294 295 295 296 296 296 295 295 296 296 297 297 297 297 297 297 297 297 297 297 297 297 297 298 298 298
302 302 301 300 300 300 300 298 296 296 295 295 294 294 293 294 294 295 295 295 295 295 295 295 296 296 297 297 297 297 297 297 297 297 297 297 297 298 298 297 298 299 299
301 301 300 300 300 299 297 296 296 295 294 294 293 293 293 294 294 295 295 295 295 296 296 297 297 296 297 298 300 300 300 300 300 299 299 298 298 298 298 300 299 299 300
301 300 300 299 297 297 297 296 295 294 293 293 293 293 293 294 293 294 296 296 296 296 297 297 298 298 297 297 298 299 299 300 299 300 300 299 298 299 300 299 299 299 299
299 299 299 297 297 297 296 295 295 293 293 292 293 293 293 292 293 295 296 296 296 297 296 296 296 296 298 297 296 297 297 297 297 298 299 300 299 299 300 299 299 300 299
298 298 297 297 297 296 295 295 294 293 292 293 293 293 292 292 293 294 295 296 295 296 296 296 296 296 295 296 296 297 297 297 297 298 300 300 300 300 300 301 300 299 299
298 297 297 297 297 295 295 294 294 292 292 293 293 292 292 293 293 294 295 296 295 296 296 296 295 295 294 295 296 297 297 296 298 299 299 300 301 302 301 299 300 299 299
298 298 298 297 296 295 294 294 292 292 293 292 292 293 292 293 293 294 295 296 295 295 294 294 293 294 295 295 296 296 296 297 298 299 299 300 301 303 301 300 300 299 299
298 298 298 296 295 294 294 293 292 292 292 292 292 292 292 293 293 294 294 295 295 295 295 293 292 292 293 295 296 296 295 298 299 298 299 298 300 300 299 301 300 300 298
298 298 297 296 295 294 293 293 292 291 292 292 292 292 293 293 293 293 294 295 295 294 293 292 292 293 293 293 295 296 298 299 298 298 298 298 298 297 299 298 299 299 300
298 298 297 295 294 294 293 292 291 291 292 292 292 292 293 293 293 293 293 293 295 294 293 292 292 292 291 294 297 298 299 298 298 297 298 298 298 298 298 297 297 298 298
298 297 296 294 294 293 293 291 291 292 292 292 293 292 292 293 294 293 295 294 295 294 292 292 292 291 291 294 296 297 297 297 297 296 297 297 297 298 299 298 299 298 298
297 296 295 294 294 293 292 290 291 291 292 292 292 292 293 293 294 293 294 293 293 292 292 291 290 289 290 292 294 295 296 296 296 297 297 297 298 299 299 299 299 299 298
297 295 294 294 293 292 290 291 291 291 290 290 291 291 292 292 292 292 292 292 291 291 290 290 289 289 289 290 292 292 293 295 295 297 298 298 299 299 299 299 299 299 298
296 294 294 293 292 290 290 291 291 291 290 289 290 290 291 291 291 292 291 290 290 289 289 289 289 289 288 289 290 292 292 293 295 297 298 299 300 300 299 300 299 299 298
295 294 293 292 290 290 290 290 290 290 290 289 289 289 290 290 290 290 290 289 289 289 289 289 289 289 288 288 289 291 292 293 296 297 298 299 299 300 299 299 299 299 299
294 293 292 291 290 290 290 290 290 289 290 289 289 289 289 290 291 289 289 289 289 289 289 288 288 288 288 288 289 290 291 293 296 297 299 300 299 300 300 300 300 300 299
293 291 291 290 289 290 290 290 289 289 289 289 289 289 289 290 289 289 289 289 289 288 288 288 288 287 287 287 288 289 291 294 297 299 300 300 301 301 300 300 300 300 300
292 289 289 289 289 290 290 289 289 288 288 288 288 288 288 289 288 288 288 288 288 288 288 288 288 288 288 287 288 290 292 295 297 298 300 300 300 300 300 301 302 302 303
289 288 289 289 289 290 289 288 288 288 288 288 288 288 288 288 288 288 288 288 288 288 288 288 288 288 288 288 288 291 292 294 297 299 299 299 299 299 300 302 302 303 302
288 288 288 289 289 289 289 288 288 288 288 288 288 288 288 288 288 288 288 288 288 288 288 288 288 289 289 289 289 292 293 295 297 298 299 298 298 300 299 301 302 303 304
288 288 288 289 288 288 288 288 288 287 287 288 288 288 288 288 288 288 288 288 288 289 289 289 290 290 291 291 291 293 294 295 296 297 298 298 298 299 300 299 300 302 302
287 287 287 288 288 288 288 287 288 288 287 287 287 287 288 288 288 288 288 288 289 289 290 291 291 292 293 293 293 293 294 295 296 297 297 298 298 298 299 300 300 301 302
287 287 287 287 288 288 287 287 287 287 287 287 287 287 287 287 287 287 288 289 289 290 291 292 293 295 296 296 294 294 295 295 296 296 297 297 297 298 299 300 300 301 302

GFSGL_850_thetae_078.txt.gz
Theta_e
305 304 303 303 303 302 301 301 301 301 301 300 300 298 296 296 295 295 294 294 294 294 294 295 295 296 296 296 296 297 296 296 297 296 296 296 296 296 297 297 297 297 297
304 304 303 303 302 301 301 301 300 300 299 297 296 296 295 294 294 293 293 294 294 294 295 296 296 296 295 295 295 295 296 296 297 297 296 296 296 297 297 297 297 297 297
302 303 302 302 301 300 300 300 299 298 296 296 295 295 294 293 293 293 293 293 294 295 295 295 294 295 295 295 295 296 296 296 297 297 297 297 297 297 298 299 298 298 298
301 301 301 300 300 300 300 299 297 296 296 295 295 294 293 292 292 293 293 294 294 294 294 295 295 296 296 296 296 296 296 297 297 297 297 298 298 298 298 299 298 299 300
301 301 300 300 300 299 297 296 296 296 295 294 293 292 292 293 293 293 294 294 295 295 295 296 296 296 297 297 298 299 299 299 299 299 299 298 298 298 298 299 299 299 299
300 299 299 299 298 297 297 296 296 295 294 293 292 292 293 293 293 293 294 295 295 295 295 295 297 297 296 297 297 298 298 300 299 299 299 298 298 298 298 299 298 299 298
299 298 298 297 297 297 297 296 295 295 294 293 292 292 293 293 292 294 295 295 296 296 295 296 296 295 297 295 296 296 296 296 297 298 298 297 297 297 298 298 298 298 298
299 298 297 297 297 297 296 295 295 294 293 292 292 292 292 292 292 294 295 296 295 295 295 295 296 296 294 294 294 295 295 295 296 296 297 297 297 298 299 299 299 300 299
299 299 298 298 298 297 296 295 294 294 292 292 292 291 292 292 292 293 294 295 295 295 295 295 294 295 293 295 295 295 295 295 295 295 296 297 298 299 301 301 300 300 299
299 299 298 298 297 296 295 295 294 293 292 292 291 292 292 292 293 293 294 295 295 295 294 295 295 294 294 294 295 295 295 294 294 295 296 298 299 299 298 298 299 300 299
299 298 298 298 297 296 295 294 293 293 292 290 292 292 292 292 293 293 294 294 294 295 294 295 294 293 294 295 294 294 294 294 295 296 298 299 298 298 297 299 301 301 300
298 298 297 297 296 295 294 294 293 291 290 291 291 291 292 292 293 293 293 294 295 295 294 294 295 293 294 293 293 294 297 297 298 298 299 298 298 298 298 298 299 300 299
298 297 297 296 295 294 294 293 292 290 291 291 291 292 291 292 292 293 293 294 294 295 294 293 293 293 291 291 292 294 297 297 297 297 297 297 296 297 298 298 298 298 299
298 297 296 296 294 294 293 292 290 291 291 291 292 291 292 291 292 293 294 294 293 293 292 292 291 291 290 290 292 295 296 296 296 296 295 296 296 297 297 298 298 297 297
297 297 296 295 294 293 292 290 290 291 291 291 291 291 291 291 292 293 293 294 292 292 292 291 290 289 289 289 289 291 293 294 295 295 295 296 297 297 298 298 297 297 298
297 296 295 294 293 291 290 289 291 290 290 290 290 290 291 291 291 292 292 291 291 290 290 289 289 289 289 288 288 290 291 292 292 294 295 297 297 298 299 299 298 298 298
296 295 294 293 291 290 289 290 290 290 289 290 289 289 290 291 291 291 291 291 290 289 289 289 289 289 288 288 288 289 290 290 292 294 296 297 298 299 299 299 299 299 299
295 294 293 291 290 289 289 290 290 290 289 289 288 288 289 289 290 289 290 289 289 289 289 289 288 288 288 288 288 288 289 291 293 296 297 298 299 299 299 299 299 298 298
294 294 291 290 289 289 290 290 289 289 288 289 288 288 289 289 289 289 289 289 288 288 288 288 288 288 288 287 288 288 289 291 294 296 298 299 300 300 300 299 299 299 299
293 290 288 289 289 290 290 289 288 288 288 288 288 288 289 290 289 289 288 288 288 288 288 288 288 288 288 289 288 288 289 292 296 297 299 300 300 300 300 299 301 301 298
290 288 288 288 289 289 291 289 288 288 288 288 288 288 288 289 288 288 288 288 288 288 288 288 288 288 288 288 288 288 289 294 297 298 299 299 300 299 301 301 301 302 300
289 288 288 288 288 289 289 288 288 287 287 287 288 288 288 288 288 288 288 288 288 288 288 288 288 288 288 288 288 288 291 295 297 298 298 298 299 299 301 302 300 301 303
287 288 288 287 288 288 288 288 288 287 287 287 287 288 288 287 288 288 288 288 288 288 288 288 288 289 289 289 289 289 292 295 298 298 298 298 298 299 300 301 302 303 302
287 287 287 287 288 288 287 287 287 287 287 287 287 287 287 287 287 287 288 288 288 288 289 289 289 290 291 292 291 292 293 295 297 297 298 298 298 300 299 300 302 303 303
286 287 287 288 288 287 288 287 287 287 287 287 287 287 287 287 287 287 288 288 288 288 289 290 291 292 293 294 293 293 294 295 297 297 298 297 298 299 300 300 301 303 303
286 286 287 288 288 288 288 286 287 287 287 287 287 287 287 287 287 287 288 288 289 289 290 291 292 293 295 296 295 294 294 295 297 297 297 297 297 299 300 300 301 302 303